Terminal Aerodrome Forecast
Issued by NWS La Crosse, WI

Home | Current Version | Previous Version | Text Only | Print | Product List | Glossary On
Versions: 1 2 3 4 5 6 7 8 9 10 11 12 13 14 15 16 17 18 19 20 21 22 23 24 25 26 27 28 29 30 31 32 33 34 35 36 37 38 39 40 41 42 43 44 45
000
FTUS43 KARX 031730
TAFRST
TAF
KRST 031730Z 0318/0418 28015KT 4SM BR OVC010
     FM032000 30022G31KT P6SM OVC012
     FM040200 30017G27KT P6SM OVC015
     FM040800 30015G23KT P6SM SCT020=

USA.gov is the U.S. government's official web portal to all federal, state and local government web resources and services.